When you browse on this site, cookies collect data to enhance your experience and personalize the content and advertising you see.
Visit our Privacy Policy to learn more. By continuing to use the site, you agree to this use of cookies and data.

Meteo pe oră la Dzieciolowka

Astăzi, 23 Septembrie, Miercuri

Timp Temperatura Precipitaţii Vânt Presiune Umiditate
00:00 +15°C° 0 mm 2 m/s 746 mmHg 67%
01:00 +14°C° 0 mm 2 m/s 746 mmHg 68%
02:00 +14°C° 0 mm 2 m/s 746 mmHg 69%
03:00 +14°C° 0 mm 2 m/s 746 mmHg 70%
04:00 +13°C° 0 mm 2 m/s 746 mmHg 72%
05:00 +13°C° 0 mm 2 m/s 745 mmHg 73%
06:00 +13°C° 0 mm 3 m/s 745 mmHg 72%
07:00 +14°C° 0 mm 3 m/s 745 mmHg 71%
08:00 +14°C° 0 mm 3 m/s 745 mmHg 69%
09:00 +17°C° 0 mm 3 m/s 745 mmHg 64%
10:00 +19°C° 0 mm 3 m/s 744 mmHg 58%
11:00 +21°C° 0 mm 3 m/s 744 mmHg 53%
12:00 +24°C° 0 mm 3 m/s 744 mmHg 50%
13:00 +25°C° 0 mm 3 m/s 744 mmHg 46%
14:00 +26°C° 0 mm 4 m/s 744 mmHg 43%
15:00 +25°C° 0 mm 3 m/s 743 mmHg 48%
16:00 +24°C° 0 mm 3 m/s 743 mmHg 52%
17:00 +24°C° 0 mm 2 m/s 743 mmHg 57%
18:00 +21°C° 0 mm 2 m/s 743 mmHg 62%
19:00 +19°C° 0 mm 2 m/s 743 mmHg 68%
20:00 +17°C° 0 mm 2 m/s 743 mmHg 73%
21:00 +17°C° 0 mm 2 m/s 743 mmHg 74%
22:00 +17°C° 0 mm 3 m/s 743 mmHg 76%
23:00 +16°C° 0 mm 3 m/s 743 mmHg 77%

Mâine, 24 Septembrie, Joi

Timp Temperatura Precipitaţii Vânt Presiune Umiditate
00:00 +16°C° 0 mm 3 m/s 743 mmHg 78%
01:00 +16°C° 0 mm 3 m/s 743 mmHg 79%
02:00 +14°C° 0 mm 3 m/s 743 mmHg 80%
03:00 +14°C° 0 mm 3 m/s 743 mmHg 82%
04:00 +14°C° 0 mm 3 m/s 742 mmHg 83%
05:00 +13°C° 0 mm 3 m/s 742 mmHg 85%
06:00 +14°C° 0 mm 3 m/s 742 mmHg 82%
07:00 +16°C° 0 mm 3 m/s 742 mmHg 78%
08:00 +17°C° 0 mm 3 m/s 742 mmHg 75%
09:00 +19°C° 0 mm 4 m/s 742 mmHg 69%
10:00 +20°C° 0 mm 4 m/s 742 mmHg 63%
11:00 +22°C° 0 mm 4 m/s 742 mmHg 56%
12:00 +23°C° 0 mm 4 m/s 742 mmHg 54%
13:00 +25°C° 0 mm 4 m/s 742 mmHg 51%
14:00 +26°C° 0 mm 4 m/s 742 mmHg 48%
15:00 +25°C° 0 mm 4 m/s 742 mmHg 52%
16:00 +25°C° 0 mm 3 m/s 742 mmHg 56%
17:00 +24°C° 0 mm 2 m/s 742 mmHg 60%
18:00 +23°C° 0.1 mm 2 m/s 742 mmHg 66%
19:00 +20°C° 0.1 mm 2 m/s 742 mmHg 71%
20:00 +18°C° 0.1 mm 2 m/s 742 mmHg 76%
21:00 +18°C° 0 mm 2 m/s 742 mmHg 78%
22:00 +18°C° 0 mm 2 m/s 742 mmHg 80%
23:00 +17°C° 0 mm 2 m/s 742 mmHg 82%

Poimâine, 25 Septembrie, Vineri

Timp Temperatura Precipitaţii Vânt Presiune Umiditate
00:00 +17°C° 0.1 mm 2 m/s 742 mmHg 84%
01:00 +16°C° 0.1 mm 2 m/s 742 mmHg 85%
02:00 +16°C° 0.1 mm 2 m/s 742 mmHg 87%
03:00 +16°C° 0 mm 2 m/s 742 mmHg 89%
04:00 +15°C° 0 mm 2 m/s 741 mmHg 91%
05:00 +15°C° 0 mm 2 m/s 741 mmHg 92%
06:00 +16°C° 0.1 mm 2 m/s 741 mmHg 90%
07:00 +16°C° 0.1 mm 3 m/s 741 mmHg 87%
08:00 +17°C° 0.1 mm 3 m/s 741 mmHg 85%
09:00 +19°C° 0 mm 4 m/s 740 mmHg 78%
10:00 +21°C° 0 mm 4 m/s 740 mmHg 71%
11:00 +22°C° 0 mm 5 m/s 740 mmHg 64%
12:00 +23°C° 0 mm 6 m/s 739 mmHg 59%
13:00 +24°C° 0 mm 6 m/s 739 mmHg 55%
14:00 +26°C° 0 mm 6 m/s 739 mmHg 51%
15:00 +24°C° 0.1 mm 6 m/s 738 mmHg 55%
16:00 +23°C° 0.1 mm 5 m/s 738 mmHg 59%
17:00 +22°C° 0.1 mm 5 m/s 737 mmHg 63%
18:00 +21°C° 0 mm 5 m/s 737 mmHg 66%
19:00 +20°C° 0 mm 5 m/s 737 mmHg 68%
20:00 +19°C° 0 mm 5 m/s 737 mmHg 71%
21:00 +19°C° 0.1 mm 5 m/s 737 mmHg 74%
22:00 +18°C° 0.1 mm 4 m/s 737 mmHg 77%
23:00 +18°C° 0.1 mm 4 m/s 736 mmHg 81%

26 Septembrie, Sâmbătă

Timp Temperatura Precipitaţii Vânt Presiune Umiditate
00:00 +18°C° 0 mm 4 m/s 736 mmHg 82%
01:00 +17°C° 0 mm 4 m/s 736 mmHg 84%
02:00 +17°C° 0 mm 4 m/s 736 mmHg 85%
03:00 +17°C° 0 mm 4 m/s 736 mmHg 85%
04:00 +17°C° 0 mm 4 m/s 736 mmHg 84%
05:00 +17°C° 0 mm 3 m/s 736 mmHg 83%
06:00 +17°C° 0 mm 4 m/s 736 mmHg 83%
07:00 +17°C° 0 mm 4 m/s 736 mmHg 83%
08:00 +17°C° 0 mm 4 m/s 736 mmHg 83%
09:00 +18°C° 0 mm 4 m/s 736 mmHg 78%
10:00 +19°C° 0 mm 5 m/s 736 mmHg 74%
11:00 +20°C° 0 mm 5 m/s 736 mmHg 70%
12:00 +21°C° 0 mm 6 m/s 736 mmHg 68%
13:00 +22°C° 0 mm 6 m/s 736 mmHg 66%
14:00 +23°C° 0 mm 7 m/s 736 mmHg 63%
15:00 +23°C° 0 mm 6 m/s 736 mmHg 63%
16:00 +23°C° 0 mm 6 m/s 735 mmHg 62%
17:00 +23°C° 0 mm 6 m/s 735 mmHg 61%
18:00 +22°C° 0 mm 6 m/s 736 mmHg 59%
19:00 +22°C° 0 mm 6 m/s 736 mmHg 57%
20:00 +21°C° 0 mm 6 m/s 736 mmHg 56%
21:00 +21°C° 0 mm 7 m/s 736 mmHg 54%
22:00 +21°C° 0 mm 7 m/s 736 mmHg 52%
23:00 +21°C° 0 mm 7 m/s 736 mmHg 51%

27 Septembrie, Duminică

Timp Temperatura Precipitaţii Vânt Presiune Umiditate
00:00 +20°C° 0 mm 7 m/s 736 mmHg 51%
01:00 +20°C° 0 mm 7 m/s 736 mmHg 52%
02:00 +19°C° 0 mm 6 m/s 736 mmHg 53%
03:00 +19°C° 0 mm 6 m/s 736 mmHg 54%
04:00 +19°C° 0 mm 6 m/s 735 mmHg 55%
05:00 +17°C° 0 mm 6 m/s 735 mmHg 56%
06:00 +17°C° 0 mm 6 m/s 735 mmHg 57%
07:00 +17°C° 0 mm 6 m/s 735 mmHg 58%
08:00 +17°C° 0 mm 7 m/s 735 mmHg 59%
09:00 +18°C° 0 mm 7 m/s 735 mmHg 57%
10:00 +20°C° 0 mm 7 m/s 735 mmHg 55%
11:00 +21°C° 0 mm 8 m/s 736 mmHg 53%
12:00 +21°C° 0 mm 8 m/s 735 mmHg 53%
13:00 +21°C° 0 mm 8 m/s 735 mmHg 53%
14:00 +21°C° 0 mm 8 m/s 735 mmHg 53%
15:00 +20°C° 0.2 mm 7 m/s 735 mmHg 60%
16:00 +18°C° 0.2 mm 7 m/s 735 mmHg 67%
17:00 +17°C° 0.2 mm 7 m/s 735 mmHg 75%
18:00 +17°C° 0 mm 7 m/s 735 mmHg 72%
19:00 +17°C° 0 mm 7 m/s 735 mmHg 70%
20:00 +17°C° 0 mm 8 m/s 735 mmHg 67%
21:00 +16°C° 0 mm 7 m/s 735 mmHg 71%
22:00 +16°C° 0 mm 7 m/s 735 mmHg 74%
23:00 +16°C° 0 mm 7 m/s 735 mmHg 78%

28 Septembrie, Luni

Timp Temperatura Precipitaţii Vânt Presiune Umiditate
00:00 +15°C° 0.1 mm 6 m/s 736 mmHg 79%
01:00 +14°C° 0.1 mm 6 m/s 736 mmHg 80%
02:00 +13°C° 0.1 mm 6 m/s 736 mmHg 81%
03:00 +11°C° 0 mm 6 m/s 736 mmHg 79%
04:00 +10°C° 0 mm 6 m/s 737 mmHg 77%
05:00 +9°C° 0 mm 6 m/s 737 mmHg 74%
06:00 +9°C° 0 mm 6 m/s 737 mmHg 74%
07:00 +9°C° 0 mm 6 m/s 738 mmHg 73%
08:00 +9°C° 0 mm 6 m/s 738 mmHg 72%
09:00 +9°C° 0 mm 6 m/s 738 mmHg 70%
10:00 +10°C° 0 mm 6 m/s 739 mmHg 69%
11:00 +10°C° 0 mm 7 m/s 739 mmHg 67%
12:00 +10°C° 0 mm 7 m/s 739 mmHg 65%
13:00 +11°C° 0 mm 7 m/s 739 mmHg 62%
14:00 +11°C° 0 mm 7 m/s 739 mmHg 60%
15:00 +11°C° 0.1 mm 7 m/s 740 mmHg 63%
16:00 +10°C° 0.1 mm 6 m/s 740 mmHg 66%
17:00 +10°C° 0.1 mm 6 m/s 740 mmHg 69%
18:00 +9°C° 0 mm 6 m/s 740 mmHg 72%
19:00 +8°C° 0 mm 6 m/s 740 mmHg 74%
20:00 +8°C° 0 mm 5 m/s 741 mmHg 77%
21:00 +7°C° 0 mm 5 m/s 741 mmHg 78%
22:00 +7°C° 0 mm 5 m/s 741 mmHg 79%
23:00 +7°C° 0 mm 4 m/s 741 mmHg 80%
Arată mai mult